SL-8 DEB

Satellite information

Favourite Embed

Satellite Type and Status

DEBRISIN ORBIT

Key statistics

Satellite SL-8 DEB at a glance.

Uptime

11868

Days in orbit

Revolutions

≈ 14.5

Per day

Orbit

LEO

Low Earth Orbit

Inclination

74.0

Latest

Satellite identification and parameters

Extended collection of information and parameters for SL-8 DEB.

Object identification

Identified? True

Debris? True

Object name: SL-8 DEB

International designator: 1993-036C

Object number (NORAD): 23007

Object ID (CCSDS): 23007

Country: COMMONWEALTH OF INDEPENDENT STATES (CIS)

Current information (Y/N): Y

RCS size: SMALL

Orbital parameters

Period: 99.448 minutes

Inclination: 74.0251 deg

SMA: 7110.336 km

Apoapsis: 738.827 km

Periapsis: 725.575 km

RAAN: 105.5509 deg

Eccentricy: 0.0009319

Argument of periapsis: 99.7416 deg

Mean anomaly: 52.988 deg

Mean motion: 14.47996753 rev/day

Mean motion (dot): 0.00002843 rev/day2

B* drag term: 0.00077209065 1/REarth

Two-line elements (TLE)

Creation date: Dec. 12, 2025, 3:16 a.m.

Reference frame: TEME

Reference center: EARTH

Epoch: Dec. 11, 2025, 7:12 p.m. UTC

TLE line 0: 0 SL-8 DEB

TLE line 1: 1 23007U 93036C 25345.80066623 .00002843 00000-0 77209-3 0 9998

TLE line 2: 2 23007 74.0251 105.5509 0009319 99.7416 52.9880 14.47996753702945

Live tracking on map

Real-time ground track for satellite SL-8 DEB.

In-orbit conjunctions

A list of the most updated potential collisions computed for object SL-8 DEB.

Target Orbit TCA Probability of collision Miss distance Type
SS 2 LEO 2025-03-04 05:51:29 0.0004658221 904.0 (m) PAYLOAD

Associated space launch

Military communications satellite. Destroyed in a collision with Iridium 33.

SL-8 DEB was lifted into orbit during the mission ‘Kosmos-3M | Strela-2M 51’, on board a Kosmos-3M space rocket.

The launch took place on June 16, 1993, 4:17 a.m. from 132/1 (132L).

For more information about the launch, click the button.

Launch to space Kosmos-3M | Strela-2M 51
Kosmos-3M | Strela-2M 51

Agency: N/A

Status: Launch Successful

Launch date: June 16, 1993, 4:17 a.m. UTC

Rocket: Kosmos-3M

Launch pad: 132/1 (132L)

Location: Plesetsk Cosmodrome, Russian Federation

...

Latest news about this satellite

There are no fresh news available about this satellite. Check back as we update our databases every day.


Newsletter sign-up

Weekly statistics, charts and insights to help you stay on top of the space industry.